If you wish to contribute or participate in the discussions about articles you are invited to join SKYbrary as a registered user

 Actions

Amado Nervo National Airport

From SKYbrary Wiki

MMEP
Airport
ICAO: MMEP – IATA: TPQ
Summary
Name Amado Nervo National Airport
Region South America and Caribbean
Territory Mexico MX.gif
Location Tepic, Nayarit
Serving Tepic
Elevation 920.496 m
3,020 ft
3,020 ft920.496 m
Type medium airport
Coordinates 21° 25' 10.03" N, 104° 50' 33.29" W
Runways
Designator Length Width Surface ROPS
2/20 2300 m7,545.932 ft
45 m147.638 ft
ASP /


METAR
Observation MMEP 182244Z 01008KT 12SM SKC 31/12 A2992 RMK HZY
Station Tepic, Nay.
Date/Time 18 April 2019 22:44:00
Wind direction 10°
Wind speed 08 kts
Lowest cloud amount n/a
Temperature 31°C
Dew point 12°C
Humidity 31%
QNH hPa
Weather condition n/a

Amado Nervo national Airport or Tepic Airport is an international airport located at Tepic and the main airport in the Mexican state of Nayarit.

Climatology

Humid subtropical climate (Köppen climate classification Cwa)

Maps

Terrain

Loading map...

Airport Layout

Loading map...


Accidents & Serious Incidents at or in vicinity of MMEP

None on SKYbrary